Time,TemperatureF,DewpointF,PressureIn,WindDirection,WindDirectionDegrees,WindSpeedMPH,WindSpeedGustMPH,Humidity,HourlyPrecipIn,Conditions,Clouds,dailyrainin,SolarRadiationWatts/m^2,SoftwareType,DateUTC
2014-01-06 00:22:00,6.0,2.0,-100.00,WNW,298,4.0,11.0,83,-99.99,,,-99.99,0.000000,,2014-01-06 05:22:00,
2014-01-06 00:33:00,6.0,2.0,-100.00,WNW,298,4.0,11.0,83,-99.99,,,-99.99,0.000000,,2014-01-06 05:33:00,
2014-01-06 00:43:00,6.0,2.0,-100.00,WNW,298,4.0,11.0,83,-99.99,,,-99.99,0.000000,,2014-01-06 05:43:00,
2014-01-06 00:52:00,6.0,2.0,-100.00,WNW,298,4.0,11.0,83,-99.99,,,-99.99,0.000000,,2014-01-06 05:52:00,
2014-01-06 01:22:00,6.0,3.0,-100.00,WNW,293,5.0,11.0,87,-99.99,,,-99.99,0.000000,,2014-01-06 06:22:00,
2014-01-06 01:33:00,6.0,3.0,-100.00,WNW,293,5.0,11.0,87,-99.99,,,-99.99,0.000000,,2014-01-06 06:33:00,
2014-01-06 01:43:00,6.0,3.0,-100.00,WNW,293,5.0,11.0,87,-99.99,,,-99.99,0.000000,,2014-01-06 06:43:00,
2014-01-06 01:52:00,6.0,3.0,-100.00,WNW,293,5.0,11.0,87,-99.99,,,-99.99,0.000000,,2014-01-06 06:52:00,
2014-01-06 02:22:00,6.0,2.0,-100.00,WNW,300,4.0,10.0,83,-99.99,,,-99.99,0.000000,,2014-01-06 07:22:00,
2014-01-06 02:32:00,6.0,2.0,-100.00,WNW,300,4.0,10.0,83,-99.99,,,-99.99,0.000000,,2014-01-06 07:32:00,
2014-01-06 02:42:00,6.0,2.0,-100.00,WNW,300,4.0,10.0,83,-99.99,,,-99.99,0.000000,,2014-01-06 07:42:00,
2014-01-06 02:52:00,6.0,2.0,-100.00,WNW,300,4.0,10.0,83,-99.99,,,-99.99,0.000000,,2014-01-06 07:52:00,
2014-01-06 03:21:00,5.0,2.0,-100.00,WNW,301,5.0,13.0,85,-99.99,,,-99.99,0.000000,,2014-01-06 08:21:00,
2014-01-06 03:32:00,5.0,2.0,-100.00,WNW,301,5.0,13.0,85,-99.99,,,-99.99,0.000000,,2014-01-06 08:32:00,
2014-01-06 03:42:00,5.0,2.0,-100.00,WNW,301,5.0,13.0,85,-99.99,,,-99.99,0.000000,,2014-01-06 08:42:00,
2014-01-06 03:52:00,5.0,2.0,-100.00,WNW,301,5.0,13.0,85,-99.99,,,-99.99,0.000000,,2014-01-06 08:52:00,
2014-01-06 04:22:00,4.0,0.0,-100.00,WNW,295,5.0,11.0,82,-99.99,,,-99.99,0.000000,,2014-01-06 09:22:00,
2014-01-06 04:33:00,4.0,0.0,-100.00,WNW,295,5.0,11.0,82,-99.99,,,-99.99,0.000000,,2014-01-06 09:33:00,
2014-01-06 04:43:00,4.0,0.0,-100.00,WNW,295,5.0,11.0,82,-99.99,,,-99.99,0.000000,,2014-01-06 09:43:00,
2014-01-06 04:53:00,4.0,0.0,-100.00,WNW,295,5.0,11.0,82,-99.99,,,-99.99,0.000000,,2014-01-06 09:53:00,
2014-01-06 05:23:00,2.0,-2.0,-100.00,WNW,296,6.0,9.0,83,-99.99,,,-99.99,0.000000,,2014-01-06 10:23:00,
2014-01-06 05:32:00,2.0,-2.0,-100.00,WNW,296,6.0,9.0,83,-99.99,,,-99.99,0.000000,,2014-01-06 10:32:00,
2014-01-06 05:43:00,2.0,-2.0,-100.00,WNW,296,6.0,9.0,83,-99.99,,,-99.99,0.000000,,2014-01-06 10:43:00,
2014-01-06 05:53:00,2.0,-2.0,-100.00,WNW,296,6.0,9.0,83,-99.99,,,-99.99,0.000000,,2014-01-06 10:53:00,
2014-01-06 06:22:00,1.0,-2.0,-100.00,WNW,296,6.0,12.0,87,-99.99,,,-99.99,0.000000,,2014-01-06 11:22:00,
2014-01-06 06:33:00,1.0,-2.0,-100.00,WNW,296,6.0,12.0,87,-99.99,,,-99.99,0.000000,,2014-01-06 11:33:00,
2014-01-06 06:43:00,1.0,-2.0,-100.00,WNW,296,6.0,12.0,87,-99.99,,,-99.99,0.000000,,2014-01-06 11:43:00,
2014-01-06 06:52:00,1.0,-2.0,-100.00,WNW,296,6.0,12.0,87,-99.99,,,-99.99,0.000000,,2014-01-06 11:52:00,
2014-01-06 07:22:00,0.0,-3.0,-100.00,WNW,293,7.0,14.0,86,-99.99,,,-99.99,0.000000,,2014-01-06 12:22:00,
2014-01-06 07:32:00,0.0,-3.0,-100.00,WNW,293,7.0,14.0,86,-99.99,,,-99.99,0.000000,,2014-01-06 12:32:00,
2014-01-06 07:42:00,0.0,-3.0,-100.00,WNW,293,7.0,14.0,86,-99.99,,,-99.99,0.000000,,2014-01-06 12:42:00,
2014-01-06 07:52:00,0.0,-3.0,-100.00,WNW,293,7.0,14.0,86,-99.99,,,-99.99,0.000000,,2014-01-06 12:52:00,
2014-01-06 08:22:00,0.0,-3.0,-100.00,WNW,293,7.0,14.0,87,-99.99,,,-99.99,0.000000,,2014-01-06 13:22:00,
2014-01-06 08:32:00,0.0,-3.0,-100.00,WNW,293,7.0,14.0,87,-99.99,,,-99.99,0.000000,,2014-01-06 13:32:00,
2014-01-06 08:42:00,0.0,-3.0,-100.00,WNW,293,7.0,14.0,87,-99.99,,,-99.99,0.000000,,2014-01-06 13:42:00,
2014-01-06 08:52:00,0.0,-3.0,-100.00,WNW,293,7.0,14.0,87,-99.99,,,-99.99,0.000000,,2014-01-06 13:52:00,
2014-01-06 09:22:00,0.0,-3.0,-100.00,WNW,293,6.0,13.0,87,-99.99,,,-99.99,2.000000,,2014-01-06 14:22:00,
2014-01-06 09:32:00,0.0,-3.0,-100.00,WNW,293,6.0,13.0,87,-99.99,,,-99.99,2.000000,,2014-01-06 14:32:00,
2014-01-06 09:42:00,0.0,-3.0,-100.00,WNW,293,6.0,13.0,87,-99.99,,,-99.99,2.000000,,2014-01-06 14:42:00,
2014-01-06 09:52:00,0.0,-3.0,-100.00,WNW,293,6.0,13.0,87,-99.99,,,-99.99,2.000000,,2014-01-06 14:52:00,
2014-01-06 10:22:00,0.0,-3.0,-100.00,WNW,293,6.0,11.0,86,-99.99,,,-99.99,22.000000,,2014-01-06 15:22:00,
2014-01-06 10:33:00,0.0,-3.0,-100.00,WNW,293,6.0,11.0,86,-99.99,,,-99.99,22.000000,,2014-01-06 15:33:00,
2014-01-06 10:43:00,0.0,-3.0,-100.00,WNW,293,6.0,11.0,86,-99.99,,,-99.99,22.000000,,2014-01-06 15:43:00,
2014-01-06 10:53:00,0.0,-3.0,-100.00,WNW,293,6.0,11.0,86,-99.99,,,-99.99,22.000000,,2014-01-06 15:53:00,
2014-01-06 11:23:00,0.0,-4.0,-100.00,WNW,294,6.0,12.0,84,-99.99,,,-99.99,65.000000,,2014-01-06 16:23:00,
2014-01-06 11:33:00,0.0,-4.0,-100.00,WNW,294,6.0,12.0,84,-99.99,,,-99.99,65.000000,,2014-01-06 16:33:00,
2014-01-06 11:43:00,0.0,-4.0,-100.00,WNW,294,6.0,12.0,84,-99.99,,,-99.99,65.000000,,2014-01-06 16:43:00,
2014-01-06 11:52:00,0.0,-4.0,-100.00,WNW,294,6.0,12.0,84,-99.99,,,-99.99,65.000000,,2014-01-06 16:52:00,
2014-01-06 12:23:00,0.0,-4.0,-100.00,WNW,295,6.0,11.0,84,-99.99,,,-99.99,100.000000,,2014-01-06 17:23:00,
2014-01-06 12:33:00,0.0,-4.0,-100.00,WNW,295,6.0,11.0,84,-99.99,,,-99.99,100.000000,,2014-01-06 17:33:00,
2014-01-06 12:43:00,0.0,-4.0,-100.00,WNW,295,6.0,11.0,84,-99.99,,,-99.99,100.000000,,2014-01-06 17:43:00,
2014-01-06 12:52:00,0.0,-4.0,-100.00,WNW,295,6.0,11.0,84,-99.99,,,-99.99,100.000000,,2014-01-06 17:52:00,
2014-01-06 13:22:00,0.0,-4.0,-100.00,WNW,291,7.0,14.0,84,-99.99,,,-99.99,127.000000,,2014-01-06 18:22:00,
2014-01-06 13:33:00,0.0,-4.0,-100.00,WNW,291,7.0,14.0,84,-99.99,,,-99.99,127.000000,,2014-01-06 18:33:00,
2014-01-06 13:42:00,0.0,-4.0,-100.00,WNW,291,7.0,14.0,84,-99.99,,,-99.99,127.000000,,2014-01-06 18:42:00,
2014-01-06 13:52:00,0.0,-4.0,-100.00,WNW,291,7.0,14.0,84,-99.99,,,-99.99,127.000000,,2014-01-06 18:52:00,
2014-01-06 14:21:00,0.0,-4.0,-100.00,WNW,290,6.0,13.0,81,-99.99,,,-99.99,172.000000,,2014-01-06 19:21:00,
2014-01-06 14:32:00,0.0,-4.0,-100.00,WNW,290,6.0,13.0,81,-99.99,,,-99.99,172.000000,,2014-01-06 19:32:00,
2014-01-06 14:42:00,0.0,-4.0,-100.00,WNW,290,6.0,13.0,81,-99.99,,,-99.99,172.000000,,2014-01-06 19:42:00,
2014-01-06 14:52:00,0.0,-4.0,-100.00,WNW,290,6.0,13.0,81,-99.99,,,-99.99,172.000000,,2014-01-06 19:52:00,
2014-01-06 15:22:00,0.0,-3.0,-100.00,WNW,293,6.0,14.0,85,-99.99,,,-99.99,78.000000,,2014-01-06 20:22:00,
2014-01-06 15:32:00,0.0,-3.0,-100.00,WNW,293,6.0,14.0,85,-99.99,,,-99.99,78.000000,,2014-01-06 20:32:00,
2014-01-06 15:42:00,0.0,-3.0,-100.00,WNW,293,6.0,14.0,85,-99.99,,,-99.99,78.000000,,2014-01-06 20:42:00,
2014-01-06 15:52:00,0.0,-3.0,-100.00,WNW,293,6.0,14.0,85,-99.99,,,-99.99,78.000000,,2014-01-06 20:52:00,
2014-01-06 16:22:00,-2.0,-6.0,-100.00,WNW,286,4.0,13.0,84,-99.99,,,-99.99,67.000000,,2014-01-06 21:22:00,
2014-01-06 16:33:00,-2.0,-6.0,-100.00,WNW,286,4.0,13.0,84,-99.99,,,-99.99,67.000000,,2014-01-06 21:33:00,
2014-01-06 16:43:00,-2.0,-6.0,-100.00,WNW,286,4.0,13.0,84,-99.99,,,-99.99,67.000000,,2014-01-06 21:43:00,
2014-01-06 16:53:00,-2.0,-6.0,-100.00,WNW,286,4.0,13.0,84,-99.99,,,-99.99,67.000000,,2014-01-06 21:53:00,
2014-01-06 17:23:00,-4.0,-8.0,-100.00,WNW,289,4.0,7.0,82,-99.99,,,-99.99,42.000000,,2014-01-06 22:23:00,
2014-01-06 17:33:00,-4.0,-8.0,-100.00,WNW,289,4.0,7.0,82,-99.99,,,-99.99,42.000000,,2014-01-06 22:33:00,
2014-01-06 17:43:00,-4.0,-8.0,-100.00,WNW,289,4.0,7.0,82,-99.99,,,-99.99,42.000000,,2014-01-06 22:43:00,
2014-01-06 17:52:00,-4.0,-8.0,-100.00,WNW,289,4.0,7.0,82,-99.99,,,-99.99,42.000000,,2014-01-06 22:52:00,
2014-01-06 18:22:00,-6.0,-11.0,-100.00,West,279,3.0,8.0,79,-99.99,,,-99.99,3.000000,,2014-01-06 23:22:00,
2014-01-06 18:32:00,-6.0,-11.0,-100.00,West,279,3.0,8.0,79,-99.99,,,-99.99,3.000000,,2014-01-06 23:32:00,
2014-01-06 18:42:00,-6.0,-11.0,-100.00,West,279,3.0,8.0,79,-99.99,,,-99.99,3.000000,,2014-01-06 23:42:00,
2014-01-06 18:52:00,-6.0,-11.0,-100.00,West,279,3.0,8.0,79,-99.99,,,-99.99,3.000000,,2014-01-06 23:52:00,
2014-01-06 19:22:00,-9.0,-14.0,-100.00,West,278,3.0,7.0,76,-99.99,,,-99.99,0.000000,,2014-01-07 00:22:00,
2014-01-06 19:32:00,-9.0,-14.0,-100.00,West,278,3.0,7.0,76,-99.99,,,-99.99,0.000000,,2014-01-07 00:32:00,
2014-01-06 19:42:00,-9.0,-14.0,-100.00,West,278,3.0,7.0,76,-99.99,,,-99.99,0.000000,,2014-01-07 00:42:00,
2014-01-06 19:52:00,-9.0,-14.0,-100.00,West,278,3.0,7.0,76,-99.99,,,-99.99,0.000000,,2014-01-07 00:52:00,
2014-01-06 20:22:00,-12.0,-18.0,-100.00,WNW,289,1.0,5.0,75,-99.99,,,-99.99,0.000000,,2014-01-07 01:22:00,
2014-01-06 20:32:00,-12.0,-18.0,-100.00,WNW,289,1.0,5.0,75,-99.99,,,-99.99,0.000000,,2014-01-07 01:32:00,
2014-01-06 20:42:00,-12.0,-18.0,-100.00,WNW,289,1.0,5.0,75,-99.99,,,-99.99,0.000000,,2014-01-07 01:42:00,
2014-01-06 20:52:00,-12.0,-18.0,-100.00,WNW,289,1.0,5.0,75,-99.99,,,-99.99,0.000000,,2014-01-07 01:52:00,
2014-01-06 21:22:00,-13.0,-19.0,-100.00,SSW,211,1.0,6.0,74,-99.99,,,-99.99,0.000000,,2014-01-07 02:22:00,
2014-01-06 21:32:00,-13.0,-19.0,-100.00,SSW,211,1.0,6.0,74,-99.99,,,-99.99,0.000000,,2014-01-07 02:32:00,
2014-01-06 21:42:00,-13.0,-19.0,-100.00,SSW,211,1.0,6.0,74,-99.99,,,-99.99,0.000000,,2014-01-07 02:42:00,
2014-01-06 21:52:00,-13.0,-19.0,-100.00,SSW,211,1.0,6.0,74,-99.99,,,-99.99,0.000000,,2014-01-07 02:52:00,
2014-01-06 22:21:00,-13.0,-19.0,-100.00,South,177,2.0,6.0,74,-99.99,,,-99.99,0.000000,,2014-01-07 03:21:00,
2014-01-06 22:33:00,-13.0,-19.0,-100.00,South,177,2.0,6.0,74,-99.99,,,-99.99,0.000000,,2014-01-07 03:33:00,
2014-01-06 22:43:00,-13.0,-19.0,-100.00,South,177,2.0,6.0,74,-99.99,,,-99.99,0.000000,,2014-01-07 03:43:00,
2014-01-06 22:53:00,-13.0,-19.0,-100.00,South,177,2.0,6.0,74,-99.99,,,-99.99,0.000000,,2014-01-07 03:53:00,
2014-01-06 23:23:00,-12.0,-17.0,-100.00,West,280,2.0,8.0,76,-99.99,,,-99.99,0.000000,,2014-01-07 04:23:00,
2014-01-06 23:33:00,-12.0,-17.0,-100.00,West,280,2.0,8.0,76,-99.99,,,-99.99,0.000000,,2014-01-07 04:33:00,
2014-01-06 23:43:00,-12.0,-17.0,-100.00,West,280,2.0,8.0,76,-99.99,,,-99.99,0.000000,,2014-01-07 04:43:00,
2014-01-06 23:53:00,-12.0,-17.0,-100.00,West,280,2.0,8.0,76,-99.99,,,-99.99,0.000000,,2014-01-07 04:53:00,